FW9285 Weather Reports


Display with metric or nautical units.
time (UTC)temp
F
wind
direction
speed
MPH
gust
MPH
rain 1hr
in
rain 24hr
in
rain mn
in
humidity
%
barometer
mb
20260506082337 59 229 1.0 3.0 0.00 0.01 0.00 44 1013.0
20260506070336 62 242 1.0 2.0 0.00 0.01 0.00 40 1013.0
20260506062336 63 248 3.0 3.0 0.00 0.01 0.01 39 1012.7
20260506061334 63 269 1.0 2.0 0.00 0.01 0.01 39 1012.6
20260506060334 64 271 2.0 3.0 0.00 0.01 0.01 38 1012.8
20260506051331 66 262 1.0 4.0 0.00 0.02 0.01 35 1012.3
20260506050331 67 271 2.0 4.0 0.00 0.02 0.01 34 1012.6
20260506043331 68 275 2.0 4.0 0.00 0.02 0.01 33 1012.1
20260506042331 68 256 2.0 4.0 0.00 0.02 0.01 34 1011.7
20260506041331 68 262 2.0 4.0 0.00 0.02 0.01 33 1011.8
20260506040330 68 263 2.0 5.0 0.00 0.02 0.01 33 1011.7
20260506035330 69 255 2.0 4.0 0.00 0.02 0.01 33 1011.5
20260506033331 70 300 1.0 6.0 0.00 0.02 0.01 31 1011.1
20260506032330 70 260 2.0 6.0 0.00 0.02 0.01 31 1010.7
20260506031331 71 262 6.0 7.0 0.00 0.02 0.01 31 1010.7
20260506030331 71 316 4.0 9.0 0.00 0.02 0.01 31 1010.6
20260506025332 71 263 3.0 9.0 0.00 0.02 0.01 31 1010.4
20260506024333 71 293 4.0 8.0 0.00 0.02 0.01 31 1010.4
20260506023331 72 258 6.0 10.0 0.00 0.02 0.01 30 1010.0
20260506022330 72 281 6.0 13.0 0.00 0.02 0.01 30 1010.1
20260506021334 72 266 9.0 13.0 0.00 0.02 0.01 30 1010.0
20260506015334 73 283 4.0 11.0 0.00 0.02 0.01 30 1009.6
20260506013332 74 316 5.0 12.0 0.00 0.02 0.01 30 1009.3
20260506012332 74 309 4.0 11.0 0.00 0.02 0.01 30 1009.6
20260506011332 74 286 3.0 21.0 0.00 0.02 0.01 30 1009.4
20260506010330 75 278 8.0 11.0 0.00 0.02 0.01 30 1009.2
20260506005331 76 302 3.0 10.0 0.00 0.02 0.01 30 1009.0
20260506004334 76 326 6.0 17.0 0.00 0.02 0.01 30 1008.9
20260506002330 74 328 5.0 16.0 0.00 0.02 0.01 30 1009.0
20260506001333 75 271 5.0 17.0 0.00 0.02 0.01 31 1008.9
20260506000330 76 298 6.0 14.0 0.00 0.02 0.01 30 1008.8
20260505235331 76 269 4.0 15.0 0.00 0.02 0.01 30 1008.8
20260505234329 76 333 5.0 18.0 0.00 0.02 0.01 31 1008.8
20260505232329 78 314 7.0 14.0 0.00 0.02 0.01 30 1008.7
20260505231329 78 310 5.0 12.0 0.00 0.02 0.01 30 1008.8
20260505225328 77 338 6.0 15.0 0.00 0.02 0.01 30 1008.6
20260505224328 77 315 7.0 16.0 0.00 0.02 0.01 30 1008.6
20260505223329 76 300 4.0 18.0 0.00 0.02 0.01 31 1009.0
20260505222329 79 304 5.0 16.0 0.00 0.02 0.01 30 1008.7
20260505221326 79 321 4.0 15.0 0.00 0.02 0.01 31 1009.0
20260505220326 80 257 3.0 18.0 0.00 0.02 0.01 31 1009.3
20260505215327 80 272 1.0 14.0 0.00 0.02 0.01 31 1009.3
20260505214326 79 251 4.0 11.0 0.00 0.02 0.01 32 1009.0
20260505213330 78 280 3.0 16.0 0.00 0.02 0.01 34 1009.3
20260505212325 79 292 4.0 13.0 0.00 0.02 0.01 34 1009.3
20260505211326 77 303 3.0 11.0 0.00 0.02 0.01 36 1009.6
20260505210326 76 308 3.0 14.0 0.00 0.02 0.01 37 1009.6
20260505205326 79 289 6.0 13.0 0.00 0.02 0.01 35 1009.6
20260505204326 78 157 4.0 12.0 0.00 0.02 0.01 32 1009.7
20260505203324 78 254 4.0 13.0 0.00 0.02 0.01 31 1009.9
20260505202323 79 240 4.0 15.0 0.00 0.02 0.01 31 1010.0
20260505201322 79 245 5.0 20.0 0.00 0.02 0.01 29 1010.2
20260505200323 79 235 3.0 16.0 0.00 0.02 0.01 31 1010.3
20260505194321 78 256 5.0 15.0 0.00 0.02 0.01 31 1010.2
20260505193321 78 195 6.0 15.0 0.00 0.02 0.01 33 1010.2
20260505192322 77 219 3.0 15.0 0.00 0.02 0.01 36 1010.7
20260505191323 76 236 7.0 13.0 0.00 0.02 0.01 36 1010.7
20260505185321 75 231 4.0 12.0 0.00 0.02 0.01 41 1010.9
20260505184321 74 227 6.0 17.0 0.00 0.02 0.01 42 1011.0
20260505183322 76 235 11.0 13.0 0.00 0.02 0.01 43 1011.0
20260505182325 74 257 3.0 15.0 0.00 0.02 0.01 45 1011.3
20260505181321 74 243 2.0 14.0 0.00 0.02 0.01 45 1011.3
20260505180320 74 203 3.0 11.0 0.00 0.02 0.01 47 1011.3
20260505174321 73 191 3.0 11.0 0.00 0.02 0.01 49 1011.6
20260505173322 71 118 2.0 12.0 0.00 0.02 0.01 51 1011.5
20260505171321 71 231 7.0 11.0 0.00 0.02 0.01 51 1011.1
20260505170321 71 246 1.0 12.0 0.00 0.02 0.01 51 1011.2
20260505165321 71 242 5.0 15.0 0.00 0.02 0.01 51 1011.7
20260505164321 71 209 4.0 13.0 0.00 0.02 0.01 52 1011.5
20260505163321 71 254 2.0 11.0 0.00 0.02 0.01 53 1011.3
20260505162321 71 317 2.0 13.0 0.00 0.02 0.01 53 1011.7
20260505161321 69 196 5.0 9.0 0.00 0.02 0.01 55 1011.2
20260505160321 70 250 2.0 9.0 0.00 0.02 0.01 56 1011.2
20260505153327 69 182 1.0 7.0 0.00 0.02 0.01 67 1011.5
20260505152322 68 209 0.0 5.0 0.00 0.02 0.01 67 1011.1
20260505151320 68 220 2.0 8.0 0.00 0.02 0.01 69 1011.0
20260505123322 62 176 1.0 3.0 0.00 0.02 0.01 87 1010.3
20260505122321 62 228 2.0 3.0 0.00 0.02 0.01 87 1010.3
20260505121319 62 207 0.0 3.0 0.00 0.02 0.01 87 1010.3
20260505120319 62 157 1.0 3.0 0.00 0.02 0.01 88 1010.3
20260505115321 62 208 0.0 3.0 0.00 0.02 0.01 88 1010.4
20260505113322 62 200 0.0 4.0 0.00 0.02 0.01 88 1010.2
20260505112320 62 129 2.0 3.0 0.00 0.02 0.01 89 1010.3
20260505110319 62 187 1.0 3.0 0.01 0.02 0.01 88 1010.4
20260505101319 62 245 1.0 3.0 0.00 0.01 0.00 85 1011.6
20260505100325 62 167 2.0 4.0 0.00 0.01 0.00 83 1011.6
20260505095320 62 182 2.0 3.0 0.00 0.00 0.00 83 1011.5
20260505094320 62 188 2.0 4.0 0.00 0.00 0.00 82 1011.7
20260505093320 63 212 1.0 3.0 0.00 0.00 0.00 81 1011.8
20260505092319 63 203 2.0 4.0 0.00 0.00 0.00 80 1012.0
20260505091320 63 244 2.0 4.0 0.00 0.00 0.00 79 1011.8
20260505090322 64 203 2.0 5.0 0.00 0.00 0.00 75 1011.6
20260505085320 64 253 2.0 7.0 0.00 0.00 0.00 74 1012.3
20260505084318 64 271 1.0 6.0 0.00 0.00 0.00 74 1012.5
20260505083319 64 221 1.0 5.0 0.00 0.00 0.00 74 1012.7